Home > Weather > Zoetermeer > Past weeks

Flag for Netherlands Past Weather in Zoetermeer, Netherlands — Yesterday and Last 2 Weeks

Now
64 °F

Cloudy.


Feels Like: 64 °F
Forecast: 57 / 63 °F
Wind: 13 mph from South

Location: Rotterdam Zestienhoven Airport

Current Time: Jul 1, 2016 at 7:12:48 PM

Latest Report: Jul 1, 2016 at 6:25 PM


Visibility: N/A

Pressure: 29.80 "Hg

Humidity: 83%

Dew Point: 59 °F

Location of ZoetermeerLocation

Past Weather in Zoetermeer — Graph

°F

Zoetermeer Temperature Yesterday

Maximum temperature yesterday: 66 °F (at 5:25 PM)
Minimum temperature yesterday: 57 °F (at 6:55 AM)
Average temperature yesterday: 62 °F

High & Low Weather Summary for the Past Weeks

 TemperatureHumidityPressure
High81 °F (Jun 23, 4:25 PM)100% (Jun 16, 8:25 PM)30.27 "Hg (Jun 16, 8:25 PM)
Low50 °F (Jun 28, 4:55 AM)56% (Jun 25, 6:25 PM)29.56 "Hg (Jun 16, 5:55 PM)
Average62 °F84%29.97 "Hg
* Reported Jun 16 5:25 PM — Jul 1 5:55 PM, Zoetermeer, Weather by CustomWeather, © 2016

Note: Actual official high and low records may vary slightly from our data, if they occured in-between our weather recording intervals... More about our weather records

Advertising

Zoetermeer Weather History for the Previous 24 Hours

Scroll right to see more
 ConditionsComfort  
Time TempWeatherWind HumidityBarometerVisibility
5:55 PM
Fri, Jul 1
64 °FMostly cloudy.16 mph83%29.83 "HgN/A
5:25 PM64 °FCloudy.15 mph83%29.83 "HgN/A
4:55 PM64 °FPartly sunny.17 mph83%29.83 "HgN/A
4:25 PM63 °FPartly sunny.17 mph94%29.83 "Hg6 mi
3:55 PM64 °FBroken clouds.20 mph83%29.83 "HgN/A
3:25 PM64 °FLight rain. Mostly cloudy.16 mph83%29.83 "HgN/A
2:55 PM64 °FMore clouds than sun.15 mph83%29.83 "HgN/A
2:25 PM64 °FBroken clouds.15 mph83%29.83 "HgN/A
1:55 PM64 °FMostly cloudy.17 mph78%29.86 "HgN/A
1:25 PM64 °FMostly cloudy.20 mph78%29.86 "HgN/A
12:55 PM64 °FMostly cloudy.16 mph78%29.86 "HgN/A
12:25 PM64 °FMostly cloudy.13 mph78%29.86 "HgN/A
11:55 AM63 °FMostly cloudy.16 mph83%29.86 "HgN/A
11:25 AM64 °FMore clouds than sun.17 mph78%29.86 "HgN/A
10:55 AM63 °FCloudy.14 mph83%29.83 "HgN/A
10:25 AM63 °FMore clouds than sun.17 mph83%29.83 "HgN/A
9:55 AM63 °FMore clouds than sun.17 mph83%29.83 "HgN/A
9:25 AM63 °FMore clouds than sun.18 mph83%29.83 "HgN/A
8:55 AM63 °FCloudy.16 mph83%29.83 "HgN/A
8:25 AM63 °FMostly cloudy.18 mph83%29.83 "HgN/A
7:55 AM63 °FMostly cloudy.18 mph88%29.83 "HgN/A
7:25 AM63 °FPartly sunny.17 mph88%29.83 "HgN/A
6:55 AM63 °FMostly cloudy.21 mph88%29.83 "HgN/A
6:25 AM63 °FOvercast.14 mph88%29.80 "HgN/A
5:55 AM63 °FPartly cloudy.17 mph88%29.83 "HgN/A
5:25 AM63 °FLight rain. Passing clouds.16 mph88%29.83 "HgN/A
4:55 AM63 °FRain. Mostly cloudy.16 mph88%29.83 "HgN/A
4:25 AM63 °FMostly cloudy.17 mph83%29.83 "HgN/A
3:55 AM63 °FMostly cloudy.15 mph83%29.83 "HgN/A
3:25 AM63 °FOvercast.18 mph83%29.83 "HgN/A
2:55 AM63 °FPartly cloudy.16 mph83%29.83 "HgN/A
2:25 AM63 °FPassing clouds.18 mph83%29.83 "HgN/A
1:55 AM63 °FMostly cloudy.15 mph77%29.83 "HgN/A
1:25 AM63 °FOvercast.14 mph77%29.83 "HgN/A
12:55 AM63 °FPassing clouds.15 mph77%29.86 "HgN/A
12:25 AM63 °FClear.16 mph77%29.86 "HgN/A
11:55 PM
Thu, Jun 30
63 °FPassing clouds.13 mph83%29.86 "HgN/A
11:25 PM63 °FPassing clouds.8 mph83%29.86 "HgN/A
10:55 PM63 °FPassing clouds.12 mph83%29.86 "HgN/A
10:25 PM63 °FPassing clouds.10 mph83%29.86 "HgN/A
9:55 PM63 °FClear.8 mph83%29.86 "HgN/A
9:25 PM63 °FClear.8 mph77%29.86 "HgN/A
8:55 PM63 °FClear.13 mph77%29.86 "HgN/A
8:25 PM63 °FClear.12 mph83%29.86 "HgN/A
7:55 PM64 °FScattered clouds.9 mph83%29.83 "HgN/A
7:25 PM64 °FClear.15 mph78%29.83 "HgN/A
Weather by CustomWeather, © 2016

See weather overviewHow to use our weather pages